Weather in Mykolaivka

Ukraine / Donetsk Region     48°51′06″N   37°46′35″E
temp.,
°C
wind,
m/s
gust,
m/s
humid.,
%
clouds,
%
prec.,
mm/h
press.,
hPa
HPBL,
m
14 may, fri
fri1400:00+14ese338891 0.0 101334
03:00+13e348996 0.0 101260
06:00+14e4118998 0.0 1011236
09:00+20se61066100 0.0 1011575
12:00+21ese6863100 0.0 1010528
15:00+26sse574598 0.0 10101398
18:00+24s366098 0.0 1010201
21:00+18s47705 0.0 101090
15 may, sat
sat1500:00+15sw35770 0.1 101177
03:00+14wsw2287100 0.1 101215
06:00+15wsw227996 0.0 101322
09:00+20wsw22563 0.0 1013501
12:00+23wsw2343100 0.0 10141257
15:00+25sw35406 0.0 10132166
18:00+24wsw235090 0.0 1013381
21:00+18nnw116276 0.0 101311
16 may, sun
sun1600:00+16n2270100 0.0 101311
03:00+15n227761 0.0 101319
06:00+15ne3578100 0.0 1013102
09:00+22ene4567100 0.0 1012511
12:00+25ne4556100 0.0 10111327
15:00+28ene454998 0.0 10092143
18:00+24e59567 0.1 1008464
21:00+19ene347052 0.1 100842
17 may, mon
mon1700:00+17ene3574100 0.0 100781
03:00+15e397864 0.0 1006137
06:00+15ese3873100 0.0 1007172
09:00+20ese6957100 0.0 1006471
12:00+25sse6845100 0.0 10061139
15:00+26ssw795165 0.0 10061411
18:00+24sse4860100 0.0 1006357
21:00+19ssw337863 0.0 100840
18 may, tue
tue1800:00+16ssw359160 0.0 100882
03:00+16sw1196100 0.6 100816
06:00+17wsw359441 2.6 1009181
09:00+21wsw567176 2.8 1010730
12:00+24wsw455229 0.0 10111688
15:00+25sw56450 0.0 10112230
18:00+24sw46530 0.0 1011455
21:00+18wsw22687 0.0 101223